Regional Weather Roundup
Issued by NWS

Home | Current Version | Previous Version | Graphics & Text | Print | Product List | Glossary On
Versions: 1 2 3 4 5 6 7 8 9 10 11 12 13 14 15 16 17 18 19 20 21 22 23 24 25 26 27 28 29 30 31 32 33 34 35 36 37 38 39 40 41 42 43 44 45 46 47 48 49 50
000
ASUS43 KLMK 212110
RWRKY
KENTUCKY REGIONAL WEATHER ROUNDUP
NATIONAL WEATHER SERVICE LOUISVILLE KY
400 PM EST FRI NOV 21 2014

NOTE "FAIR" INDICATES FEW OR NO CLOUDS BELOW 12,000 FEET
WITH NO SIGNIFICANT WEATHER AND/OR OBSTRUCTIONS TO VISIBILITY.

KYZ001>023-026-027-061>063-070>075-212200-
WESTERN AND SOUTH CENTRAL KENTUCKY

CITY           SKY/WX    TMP DP  RH WIND       PRES   REMARKS
PADUCAH        CLOUDY    47  26  44 E9        30.33F
HENDERSON      SUNNY     43  19  39 E9        30.38F
OWENSBORO      SUNNY     44  19  37 E10       30.39F
HOPKINSVILLE   MOSUNNY   48  23  37 E10       30.36S
BOWLING GREEN  SUNNY     47  16  29 E10       30.40F
GLASGOW        SUNNY     47  17  30 E7        30.40F
$$

KYZ024-025-028>034-038-045-046-053-212200-
NORTH CENTRAL KENTUCKY

CITY           SKY/WX    TMP DP  RH WIND       PRES   REMARKS
LOUISVILLE/SDF SUNNY     42  12  29 SE8       30.43F
LOUISVILLE/LOU SUNNY     40  11  30 E7        30.44F
FORT KNOX      SUNNY     41  14  33 SE9       30.41R
$$

KYZ035>037-039>044-047>052-055>060-089>105-212200-
NORTHEAST KENTUCKY

CITY           SKY/WX    TMP DP  RH WIND       PRES   REMARKS
LEXINGTON      SUNNY     39  10  30 E8        30.44F WCI  33
COVINGTON      SUNNY     34  11  38 S5        30.46R WCI  30
FRANKFORT      SUNNY     38  10  31 E8        30.43F WCI  32
$$

KYZ054-064>069-076>088-106>120-212200-
SOUTHEAST KENTUCKY

CITY           SKY/WX    TMP DP  RH WIND       PRES   REMARKS
JACKSON        SUNNY     40   8  26 E3        30.44S
LONDON         SUNNY     44  11  26 E5        30.42F
SOMERSET       SUNNY     43  14  31 E7        30.43F
MIDDLESBORO    SUNNY     47  11  23 CALM      30.42S
MONTICELLO     CLEAR     47  16  29 SE3       30.44S
$$




USA.gov is the U.S. government's official web portal to all federal, state and local government web resources and services.